COSMOS 1670 DEB

Satellite information

Favourite Embed

Satellite Type and Status

DEBRISIN ORBIT

Key statistics

Satellite COSMOS 1670 DEB at a glance.

Uptime

14584

Days in orbit

Revolutions

≈ 14.5

Per day

Orbit

LEO

Low Earth Orbit

Inclination

64.9

Latest

Satellite identification and parameters

Extended collection of information and parameters for COSMOS 1670 DEB.

Object identification

Identified? True

Debris? True

Object name: COSMOS 1670 DEB

International designator: 1985-064F

Object number (NORAD): 44569

Object ID (CCSDS): 44569

Country: COMMONWEALTH OF INDEPENDENT STATES (CIS)

Current information (Y/N): Y

RCS size: SMALL

Orbital parameters

Period: 99.619 minutes

Inclination: 64.904 deg

SMA: 7118.518 km

Apoapsis: 753.373 km

Periapsis: 727.393 km

RAAN: 283.9291 deg

Eccentricy: 0.0018248

Argument of periapsis: 181.7328 deg

Mean anomaly: 287.363 deg

Mean motion: 14.45500927 rev/day

Mean motion (dot): 0.00008902 rev/day2

B* drag term: 0.0025399 1/REarth

Two-line elements (TLE)

Creation date: July 5, 2025, 2:36 p.m.

Reference frame: TEME

Reference center: EARTH

Epoch: July 2, 2025, 9:55 p.m. UTC

TLE line 0: 0 COSMOS 1670 DEB

TLE line 1: 1 44569U 85064F 25183.91344970 .00008902 00000-0 25399-2 0 9996

TLE line 2: 2 44569 64.9040 283.9291 0018248 181.7328 287.3630 14.45500927708056

Live tracking on map

Real-time ground track for satellite COSMOS 1670 DEB.

In-orbit conjunctions

A list of the most updated potential collisions computed for object COSMOS 1670 DEB.

Target Orbit TCA Probability of collision Miss distance Type
SL-8 R/B LEO 2025-03-02 19:54:29 0.0006205422 139.0 (m) ROCKET BODY
SL-8 R/B LEO 2025-03-02 18:14:20 0.0001600552 746.0 (m) ROCKET BODY

Associated space launch

Active radar satellite for ocean surveillance powered by a nuclear reactor.

COSMOS 1670 DEB was lifted into orbit during the mission ‘Tsiklon-2 | US-A 26’, on board a Tsiklon-2 space rocket.

The launch took place on Aug. 1, 1985, 5:36 a.m. from 90.

For more information about the launch, click the button.

Launch to space Tsiklon-2 | US-A 26
Tsiklon-2 | US-A 26

Agency: N/A

Status: Launch Successful

Launch date: Aug. 1, 1985, 5:36 a.m. UTC

Rocket: Tsiklon-2

Launch pad: 90

Location: Baikonur Cosmodrome, Republic of Kazakhstan

...

Latest news about this satellite

There are no fresh news available about this satellite. Check back as we update our databases every day.


Newsletter sign-up

Weekly statistics, charts and insights to help you stay on top of the space industry.